Retour au catalogue

OPS 7724

ActifNavigationHEO
NORAD 6791·PAYLOAD·🇺🇸 United States

Lancé Aug 21, 1973 depuis Vandenberg Space Force Base

Loading…

Prochains Passages (prochaines 24 heures)

TLE

FraisSource: Space-Track

Époque: Sep 13, 2026, 09:15 UTC

1 06791U 73056A   26256.38605959  .00000330  00000-0  34049-3 0  9999
2 06791  62.8903  11.0076 7342705 281.5631  11.2132  2.00658493 51386

Suivez OPS 7724 en temps réel avec AllMySat

Download on the App Store